[[{"header":{"parameterUnit":"m.s-1","parameterCategory":1,"la1":30.2991,"la2":30.254,"lo1":-89.0895,"lo2":-89.0444,"dy":0.0017,"dx":0.0017,"nx":28,"ny":28,"refTime":"2024-02-20T09:00:00:Z","depth":0,"parameterNumber":2,"parameterNumberName":"U-component_of_WINDS"},"data":[0,0,0,0,0,0,0,0,0,0,0,0,0,0,0,0,0,0,0,0,0,0,0,0,0,0,0,0,0,0,0,0,0,0,0,0,0,0,0,0,0,0,0,0,0,0,0,0,0,0,0,0,0,0,0,0,0,0,-0.9721,-0.972,0,-0.9675,-0.9675,-0.9674,-0.9658,-0.9658,-0.9658,-0.9658,-0.9611,-0.9609,-0.9608,0,0,0,0,0,0,0,0,0,0,0,0,0,-0.9792,-0.979,-0.9721,-0.972,-0.9719,-0.9676,-0.9675,-0.9674,-0.9658,-0.9658,-0.9658,-0.9658,-0.9611,-0.9609,-0.9608,0,0,0,0,0,0,0,0,0,0,0,0,0,-0.9755,-0.979,-0.9721,-0.9706,-0.9704,-0.9676,-0.9675,-0.9674,-0.9658,-0.9658,-0.9658,-0.9658,-0.9612,-0.961,-0.9608,-0.959,0,0,-0.9601,-0.96,0,0,0,0,0,0,0,0,-0.9757,-0.9752,-0.9709,-0.9707,-0.9705,-0.9673,-0.9682,-0.9646,-0.9658,-0.9675,-0.9658,-0.9659,-0.9631,-0.9627,-0.9618,-0.9588,-0.9586,-0.9601,-0.96,-0.9599,-0.9598,0,0,0,0,0,0,0,-0.976,-0.9754,-0.9703,-0.9708,-0.9706,-0.9701,-0.9696,-0.9675,-0.9652,-0.9674,-0.9673,-0.9667,-0.963,-0.962,-0.9617,-0.9585,-0.9601,-0.9599,-0.9598,-0.9597,-0.9537,-0.9537,0,0,0,0,0,0,-0.9765,-0.9757,-0.9704,-0.9701,-0.9732,-0.97,-0.9694,-0.9683,-0.9653,-0.9648,-0.9667,-0.9667,-0.9624,-0.962,-0.9615,-0.9592,-0.9599,-0.9597,-0.9595,-0.9538,-0.9537,-0.9537,0,0,0,0,0,0,-0.9766,-0.976,-0.9706,-0.9729,-0.9721,-0.9698,-0.9685,-0.9682,-0.9672,-0.9648,-0.9643,-0.9662,-0.9624,-0.9618,-0.9596,-0.959,-0.9596,-0.9594,-0.9538,-0.9537,-0.9537,-0.9546,0,0,0,0,0,0,-0.9769,-0.9761,-0.9754,-0.9729,-0.972,-0.9688,-0.9685,-0.9681,-0.9669,-0.9668,-0.9641,-0.9637,-0.9624,-0.96,-0.9594,-0.9588,-0.9592,-0.9538,-0.9538,-0.9537,-0.9547,-0.9546,-0.9546,0,0,0,0,0,-0.9771,-0.9758,-0.9754,-0.9748,-0.9711,-0.9688,-0.9683,-0.9668,-0.9668,-0.9661,-0.9645,-0.9638,-0.9592,-0.9598,-0.9591,-0.9584,-0.9539,-0.9538,-0.9537,-0.9547,-0.9546,-0.9546,0,0,0,0,0,0,-0.9784,-0.9755,-0.975,-0.9728,-0.9711,-0.9685,-0.9676,-0.9668,-0.965,-0.965,-0.9632,-0.9626,-0.9605,-0.9592,-0.9599,-0.9565,-0.9565,-0.9563,-0.9574,-0.9574,-0.9574,-0.9577,-0.959,0,0,0,0,0,-0.9784,-0.9768,-0.9743,-0.9727,-0.9718,-0.9699,-0.9688,-0.9678,-0.9659,-0.9651,-0.9634,-0.9615,-0.9596,-0.9585,-0.9566,-0.9545,-0.9539,-0.9537,-0.9537,-0.9537,-0.9535,-0.9522,-0.9521,-0.9535,-0.9535,-0.9535,0,0,-0.9784,-0.9767,-0.9757,-0.9729,-0.9714,-0.9697,-0.9692,-0.9675,-0.9662,-0.9648,-0.9626,-0.9613,-0.9591,-0.957,-0.9559,-0.9558,-0.953,-0.9536,-0.9536,-0.9534,-0.9522,-0.952,-0.9519,-0.9534,-0.9534,-0.9534,0,0,-0.9776,-0.9762,-0.9746,-0.9731,-0.9709,-0.9696,-0.9693,-0.9668,-0.9659,-0.9637,-0.9626,-0.9611,-0.9579,-0.9564,-0.9552,-0.9539,-0.9531,-0.9533,-0.9532,-0.952,-0.9519,-0.9518,-0.9513,-0.9511,-0.9532,-0.9532,-0.9532,0,-0.9779,-0.9754,-0.9739,-0.9722,-0.9709,-0.9697,-0.9681,-0.9667,-0.964,-0.9632,-0.9632,-0.9592,-0.9576,-0.955,-0.9547,-0.9538,-0.9533,-0.9536,-0.952,-0.9519,-0.9518,-0.9513,-0.9511,-0.9532,-0.9532,-0.9532,-0.9532,0,-0.9759,-0.9741,-0.9731,-0.9705,-0.9692,-0.9676,-0.9658,-0.9646,-0.9638,-0.9625,-0.9602,-0.9583,-0.9561,-0.9554,-0.9545,-0.9527,-0.9527,-0.9524,-0.9523,-0.9517,-0.9512,-0.951,-0.9533,-0.9532,-0.9532,-0.9532,0,0,-0.9756,-0.9723,-0.972,-0.9708,-0.9683,-0.9668,-0.9652,-0.963,-0.962,-0.9602,-0.9587,-0.9561,-0.9557,-0.9544,-0.9533,-0.9523,-0.9513,-0.9521,-0.952,-0.9519,-0.9491,-0.9494,-0.9492,-0.9508,-0.9508,-0.9508,-0.9493,0,-0.9744,-0.9714,-0.97,-0.9675,-0.9658,-0.9647,-0.9632,-0.9614,-0.9602,-0.9586,-0.9572,-0.9554,-0.9551,-0.9543,-0.9532,-0.9517,-0.9507,-0.9518,-0.9493,-0.9493,-0.9499,-0.9489,-0.9491,-0.9478,-0.9491,-0.9491,-0.949,0,-0.9726,-0.9708,-0.9682,-0.9659,-0.9651,-0.9638,-0.9617,-0.9602,-0.9582,-0.9574,-0.9559,-0.9549,-0.9531,-0.9532,-0.9506,-0.9513,-0.9502,-0.9493,-0.9493,-0.9489,-0.9491,-0.9484,-0.9474,-0.9472,-0.9487,-0.9487,-0.9488,0,-0.9726,-0.9696,-0.9676,-0.9666,-0.9639,-0.963,-0.9618,-0.9599,-0.9586,-0.9568,-0.956,-0.954,-0.9528,-0.9513,-0.9497,-0.95,-0.9472,-0.9473,-0.9464,-0.9465,-0.9458,-0.9459,-0.9445,-0.9453,-0.9453,-0.9453,-0.9453,0,-0.9714,-0.9698,-0.9676,-0.9663,-0.9645,-0.963,-0.9612,-0.9599,-0.9582,-0.9567,-0.9556,-0.9542,-0.9523,-0.9506,-0.9494,-0.9474,-0.9469,-0.9462,-0.9458,-0.9462,-0.9463,-0.9454,-0.9454,-0.9453,-0.9453,-0.9453,-0.9453,0,-0.9711,-0.9695,-0.9673,-0.9649,-0.9643,-0.963,-0.961,-0.9597,-0.9584,-0.9565,-0.956,-0.954,-0.952,-0.9503,-0.9477,-0.9469,-0.9448,-0.9444,-0.9454,-0.9453,-0.9445,-0.9446,-0.9425,-0.9421,-0.9432,-0.9432,-0.9432,0,-0.9704,-0.9691,-0.9666,-0.9655,-0.9644,-0.9626,-0.9614,-0.9598,-0.9586,-0.9563,-0.9553,-0.9532,-0.9515,-0.9483,-0.9466,-0.9446,-0.9441,-0.9436,-0.9438,-0.9442,-0.944,-0.9441,-0.944,-0.9435,-0.9435,-0.9435,-0.9435,0,-0.9692,-0.9685,-0.9668,-0.9648,-0.9634,-0.9617,-0.96,-0.9592,-0.9573,-0.956,-0.9539,-0.9526,-0.9499,-0.9479,-0.9457,-0.9444,-0.9436,-0.9435,-0.9431,-0.9435,-0.9441,-0.9436,-0.9453,-0.9435,-0.9435,-0.9435,-0.9435,-0.9435,-0.9686,-0.9675,-0.9655,-0.9636,-0.9622,-0.9607,-0.9594,-0.9579,-0.9562,-0.954,-0.9532,-0.951,-0.9491,-0.9461,-0.9448,-0.9431,-0.943,-0.9426,-0.9425,-0.9424,-0.9424,-0.9444,-0.9427,-0.9427,-0.9427,-0.9427,-0.9427,0,-0.9674,-0.9661,-0.9643,-0.962,-0.9605,-0.96,-0.9581,-0.9569,-0.9551,-0.9534,-0.9517,-0.9493,-0.9473,-0.9455,-0.9434,-0.9424,-0.942,-0.9419,-0.9419,-0.9416,-0.9426,-0.9431,-0.9423,-0.9423,-0.9423,-0.9423,-0.9423,-0.9423,-0.9665,-0.9645,-0.9636,-0.9608,-0.9595,-0.9575,-0.9564,-0.955,-0.9536,-0.9511,-0.9494,-0.9482,-0.9465,-0.9442,-0.9424,-0.9419,-0.9411,-0.9411,-0.9405,-0.9415,-0.9415,-0.9416,-0.942,-0.941,-0.941,-0.9396,-0.9396,-0.9396]},{"header":{"parameterUnit":"m.s-1","parameterCategory":1,"la1":30.2991,"la2":30.254,"lo1":-89.0895,"lo2":-89.0444,"dy":0.0017,"dx":0.0017,"nx":28,"ny":28,"refTime":"2024-02-20T09:00:00:Z","depth":0,"parameterNumber":3,"parameterNumberName":"V-component_of_WINDS"},"data":[0,0,0,0,0,0,0,0,0,0,0,0,0,0,0,0,0,0,0,0,0,0,0,0,0,0,0,0,0,0,0,0,0,0,0,0,0,0,0,0,0,0,0,0,0,0,0,0,0,0,0,0,0,0,0,0,0,0,3.327,3.327,0,3.3278,3.3278,3.3278,3.3245,3.3244,3.3244,3.3243,3.3249,3.325,3.3251,0,0,0,0,0,0,0,0,0,0,0,0,0,3.3224,3.3225,3.327,3.327,3.327,3.3278,3.3278,3.3278,3.3246,3.3244,3.3243,3.3242,3.3249,3.325,3.3251,0,0,0,0,0,0,0,0,0,0,0,0,0,3.3239,3.3226,3.327,3.3255,3.3253,3.3278,3.3278,3.3278,3.3246,3.3244,3.3243,3.3242,3.3248,3.325,3.3252,3.329,0,0,3.3256,3.3257,0,0,0,0,0,0,0,0,3.3239,3.3241,3.3257,3.3256,3.3254,3.3259,3.3264,3.3282,3.3246,3.3249,3.3243,3.3241,3.3254,3.3255,3.3259,3.3291,3.3291,3.3257,3.3258,3.3258,3.3259,0,0,0,0,0,0,0,3.3238,3.3241,3.3273,3.3257,3.3256,3.3247,3.3248,3.3268,3.3259,3.3248,3.3246,3.3248,3.3253,3.3258,3.3259,3.3291,3.3257,3.3258,3.3259,3.326,3.3355,3.3357,0,0,0,0,0,0,3.3239,3.324,3.3273,3.3273,3.3243,3.3249,3.325,3.3259,3.3259,3.3257,3.3249,3.3246,3.3256,3.3257,3.3259,3.3305,3.3258,3.326,3.3261,3.3354,3.3355,3.3357,0,0,0,0,0,0,3.3238,3.3242,3.3272,3.3256,3.3259,3.3251,3.3262,3.326,3.3265,3.3259,3.3257,3.3256,3.3255,3.3257,3.3283,3.3305,3.326,3.3262,3.3352,3.3354,3.3356,3.3398,0,0,0,0,0,0,3.3237,3.3242,3.3257,3.3257,3.326,3.3297,3.3264,3.3261,3.3268,3.3265,3.3265,3.3264,3.3254,3.3281,3.3285,3.3307,3.3263,3.335,3.3353,3.3356,3.3394,3.3401,3.3407,0,0,0,0,0,3.3235,3.3268,3.3258,3.3262,3.3279,3.3298,3.33,3.3288,3.327,3.3285,3.3281,3.3264,3.3302,3.3284,3.3288,3.3311,3.3348,3.3352,3.3355,3.3391,3.34,3.3407,0,0,0,0,0,0,3.327,3.3267,3.3256,3.329,3.3294,3.3292,3.3311,3.3297,3.3307,3.3303,3.3287,3.3288,3.3317,3.3316,3.3296,3.3348,3.3322,3.3326,3.3348,3.3356,3.3362,3.3362,3.3265,0,0,0,0,0,3.3282,3.3298,3.3294,3.3324,3.3327,3.3319,3.3326,3.3317,3.3321,3.3323,3.3321,3.3325,3.3338,3.3346,3.3358,3.3394,3.3394,3.3411,3.3418,3.3423,3.3427,3.3447,3.3455,3.3369,3.3369,3.3369,0,0,3.3305,3.3306,3.3317,3.3331,3.3334,3.3351,3.332,3.3339,3.3352,3.3325,3.335,3.3349,3.3352,3.3384,3.3398,3.3384,3.3451,3.3427,3.3432,3.3433,3.3451,3.3459,3.3467,3.3371,3.3371,3.337,0,0,3.3358,3.336,3.3385,3.3389,3.3393,3.3388,3.3394,3.3394,3.3393,3.3417,3.3398,3.3412,3.3435,3.3438,3.3443,3.3498,3.3482,3.3502,3.3535,3.3554,3.3561,3.3567,3.3588,3.3595,3.3506,3.3506,3.3506,0,3.3387,3.3413,3.34,3.3421,3.3428,3.3405,3.3431,3.3434,3.3442,3.3447,3.3432,3.3461,3.3461,3.3494,3.3507,3.3511,3.3518,3.3502,3.3561,3.3567,3.3573,3.3592,3.3599,3.3508,3.3508,3.3508,3.3508,0,3.3449,3.3467,3.3486,3.3496,3.3505,3.3528,3.3518,3.3529,3.3519,3.3514,3.354,3.354,3.3552,3.3559,3.3548,3.359,3.3581,3.3564,3.3537,3.3584,3.3601,3.3609,3.3512,3.3511,3.351,3.351,0,0,3.3523,3.3526,3.3534,3.3538,3.3542,3.3555,3.3577,3.3589,3.3599,3.3605,3.3623,3.3643,3.3627,3.3633,3.3622,3.3639,3.3684,3.362,3.362,3.3633,3.373,3.3744,3.3753,3.3673,3.3675,3.3676,3.373,0,3.3576,3.3615,3.3604,3.3643,3.3659,3.3638,3.3658,3.3662,3.3658,3.3672,3.3667,3.3682,3.366,3.3663,3.3679,3.3675,3.3703,3.3671,3.369,3.3691,3.3691,3.3762,3.3777,3.3828,3.3737,3.3738,3.3739,0,3.3642,3.3653,3.3693,3.3695,3.3701,3.3719,3.373,3.3743,3.3747,3.3743,3.375,3.3736,3.3758,3.3731,3.376,3.3738,3.3745,3.3745,3.3747,3.3749,3.3719,3.3767,3.3844,3.3852,3.375,3.3749,3.3748,0,3.3694,3.3718,3.3745,3.375,3.3752,3.3765,3.3766,3.3769,3.3777,3.3786,3.3792,3.3803,3.3809,3.3817,3.3807,3.3788,3.3839,3.381,3.3837,3.3837,3.3849,3.3849,3.3929,3.3852,3.3852,3.3852,3.3852,0,3.3755,3.3781,3.3769,3.3786,3.3815,3.3802,3.383,3.3829,3.3832,3.3848,3.383,3.3845,3.3831,3.3845,3.3837,3.3863,3.3865,3.3863,3.3861,3.3866,3.3866,3.3871,3.3867,3.3854,3.3853,3.3853,3.3853,0,3.3818,3.3811,3.384,3.384,3.3841,3.3862,3.3862,3.3877,3.3873,3.3894,3.3898,3.389,3.3906,3.3897,3.3913,3.3907,3.3942,3.3934,3.3941,3.3939,3.3966,3.3964,3.4054,3.4065,3.398,3.3981,3.3981,0,3.3858,3.3877,3.388,3.389,3.3893,3.3909,3.3918,3.3906,3.3915,3.3922,3.3937,3.3951,3.3962,3.3988,3.3984,3.3996,3.3989,3.402,3.3991,3.3995,3.3991,3.3991,3.3993,3.4026,3.4027,3.4028,3.4029,0,3.3929,3.3925,3.3938,3.3951,3.3962,3.3971,3.3979,3.3988,3.3976,3.3987,3.4004,3.4013,3.4029,3.4044,3.4054,3.4055,3.404,3.4038,3.4045,3.405,3.4054,3.4053,3.3958,3.4036,3.4035,3.4035,3.4034,3.4034,3.3982,3.3999,3.4004,3.402,3.4024,3.4032,3.4047,3.4045,3.4059,3.4072,3.4064,3.4083,3.4087,3.41,3.4102,3.4117,3.4105,3.4115,3.4117,3.412,3.4125,3.405,3.4119,3.4119,3.4118,3.4118,3.4118,0,3.4053,3.4056,3.407,3.4082,3.4095,3.408,3.4088,3.4099,3.4117,3.4122,3.4134,3.4153,3.4167,3.4164,3.4177,3.4189,3.4183,3.4193,3.4193,3.4193,3.4134,3.4128,3.4198,3.4198,3.4198,3.4198,3.4198,3.4198,3.4092,3.412,3.4117,3.4147,3.4149,3.4169,3.4175,3.4181,3.4186,3.4208,3.4221,3.4219,3.4221,3.4234,3.4246,3.4245,3.4251,3.4264,3.426,3.4205,3.4197,3.419,3.4184,3.4265,3.4265,3.4318,3.4319,3.4319]}]]